GFSMW_850_dewp_354.txt.gz
Dewpoint
10 10 10 10 12 11 11 11 11 11 10 10 10 10 10 10 9 8 7 5 4 3 4 4 4 4 3 2 3 2 1 -1 -0 0 0 -2 -3 -4 -4 -4 -5 -6 -5
10 11 10 10 10 11 11 11 11 11 10 10 10 10 10 9 8 8 7 6 5 4 3 3 2 3 2 2 1 0 -0 1 0 -0 -0 -1 -2 -3 -3 -4 -4 -4 -3
11 11 11 10 11 11 11 11 11 11 11 10 10 10 10 9 8 7 6 6 5 4 3 3 2 1 1 1 1 1 0 -0 -0 -0 -1 0 -1 0 0 1 1 0 -0
10 11 11 10 10 11 11 11 11 10 10 9 8 9 9 9 7 5 5 5 4 4 3 3 2 1 1 1 1 1 1 1 1 1 -1 -1 1 3 1 1 1 2 1
10 11 11 9 9 10 11 11 11 9 9 8 9 8 9 8 6 6 6 6 4 4 3 2 2 1 1 1 1 1 2 2 1 -0 -1 0 1 1 2 1 -1 -0 -0
10 10 10 9 9 10 10 11 10 10 9 9 9 8 8 7 7 7 6 6 4 5 4 4 3 2 2 2 1 2 2 2 1 1 1 1 1 1 2 2 2 2 1
10 10 10 9 10 10 11 10 10 10 10 10 9 9 8 8 7 6 6 6 6 6 5 5 5 4 4 5 6 5 4 3 3 4 4 4 4 4 4 4 4 4 4
10 10 10 10 10 10 10 10 10 10 10 10 9 10 10 9 8 7 6 7 7 5 5 6 6 6 6 6 6 7 6 6 6 6 6 6 6 6 6 6 7 7 6
10 10 10 10 9 10 10 10 10 10 10 10 10 9 10 9 9 8 7 8 8 7 6 6 6 6 6 6 6 6 6 6 5 5 5 5 5 5 6 6 6 6 6
10 10 10 9 10 10 10 10 10 10 10 10 10 9 10 9 9 9 9 9 9 9 8 7 6 6 6 6 6 6 5 5 5 5 5 5 5 5 5 5 5 5 6
10 10 10 10 10 10 10 10 10 10 10 10 11 10 9 9 10 10 9 9 8 9 8 8 8 7 7 7 8 7 6 6 6 6 5 6 6 7 7 8 8 7 7
8 10 10 10 10 10 10 10 10 10 11 11 11 11 10 9 10 10 10 10 9 9 8 8 8 8 9 8 8 8 7 7 7 7 7 8 8 8 8 8 8 9 8
9 9 10 10 11 11 11 10 10 9 10 11 11 11 10 10 11 10 10 10 10 9 9 9 9 9 9 9 9 9 9 9 8 9 8 8 8 9 9 9 9 9 9
9 9 10 10 11 10 10 9 10 10 10 10 10 10 10 10 10 10 10 10 10 10 10 10 10 10 10 9 9 9 8 8 9 9 8 9 10 9 9 10 10 10 9
8 9 9 10 10 10 9 9 9 9 10 10 10 10 10 10 10 10 10 10 10 10 10 10 10 10 10 9 9 9 9 9 9 9 9 9 9 9 9 9 9 9 8
7 8 9 9 9 9 9 9 8 8 9 9 9 9 9 10 10 9 10 10 10 10 10 9 9 9 9 10 10 10 9 9 9 9 9 9 9 9 9 9 8 8 8
7 7 8 9 9 8 8 8 8 8 7 8 8 8 8 8 8 8 8 8 8 8 8 8 8 8 8 8 8 8 8 8 8 8 8 8 8 8 8 8 7 8 8
6 6 6 6 5 6 6 7 6 6 6 6 6 6 6 6 6 6 6 6 6 7 7 6 6 6 6 6 6 6 6 6 6 6 6 6 6 6 6 6 6 7 6
1 2 2 1 1 2 3 4 4 4 4 4 4 4 4 4 4 4 4 4 4 4 4 3 3 3 3 3 3 3 2 2 2 2 2 2 3 3 3 4 3 4 4
-5 -5 -3 -2 -1 -1 0 1 1 1 1 1 1 1 1 1 1 0 0 -1 -2 -2 -3 -4 -4 -5 -5 -6 -7 -8 -9 -9 -10 -11 -11 -11 -10 -10 -10 -11 -11 -11 -10
-5 -5 -4 -4 -4 -4 -4 -2 -1 -1 -1 -2 -2 -3 -4 -4 -5 -6 -7 -8 -9 -10 -11 -11 -12 -12 -13 -13 -15 -17 -18 -19 -20 -21 -21 -21 -21 -21 -22 -22 -23 -22 -23
-5 -5 -5 -6 -6 -6 -5 -5 -5 -6 -6 -7 -8 -10 -11 -12 -12 -13 -14 -15 -16 -18 -19 -19 -19 -19 -19 -20 -20 -21 -22 -23 -22 -22 -22 -22 -23 -24 -23 -23 -22 -21 -21
-6 -7 -7 -7 -8 -7 -8 -9 -9 -10 -11 -12 -13 -15 -15 -16 -18 -19 -20 -21 -21 -22 -22 -21 -21 -20 -20 -20 -21 -22 -23 -23 -24 -23 -24 -25 -25 -24 -23 -22 -22 -19 -17
-8 -8 -9 -9 -9 -10 -11 -12 -12 -13 -14 -16 -17 -18 -19 -20 -21 -21 -20 -19 -18 -18 -19 -21 -22 -23 -23 -22 -22 -23 -23 -23 -23 -24 -24 -23 -23 -23 -24 -23 -22 -22 -20
-9 -9 -9 -9 -10 -11 -12 -13 -15 -16 -18 -19 -19 -19 -19 -19 -19 -20 -21 -21 -21 -21 -22 -23 -24 -23 -23 -23 -25 -26 -26 -26 -25 -26 -25 -24 -24 -25 -25 -24 -23 -22 -22
-9 -10 -10 -11 -11 -12 -14 -15 -17 -19 -18 -17 -17 -19 -20 -20 -21 -21 -21 -22 -23 -24 -25 -25 -25 -24 -25 -26 -26 -26 -26 -26 -26 -25 -25 -25 -25 -24 -23 -23 -23 -21 -21

GFSMW_850_dewp_360.txt.gz
Dewpoint
11 10 10 10 11 11 11 11 12 11 10 11 9 9 10 10 8 6 6 5 5 5 6 8 7 6 5 4 4 4 4 3 2 3 2 -0 -2 -3 -5 -5 -6 -6 -5
11 10 10 10 11 11 11 11 11 10 10 10 9 10 10 10 9 6 7 7 6 6 4 6 6 5 5 5 5 4 4 4 3 2 1 -0 -4 -5 -5 -5 -6 -6 -5
10 10 10 10 10 11 11 10 10 10 10 10 10 11 10 11 9 8 7 7 6 6 4 4 4 4 4 4 4 4 4 3 2 2 1 -1 -2 -2 -2 -3 -2 -1 -1
11 10 10 10 10 11 11 11 10 10 10 10 11 11 10 9 9 9 7 7 6 5 5 5 4 4 4 4 4 4 3 2 2 2 1 1 1 1 -2 -3 -3 -3 -3
10 10 9 9 11 11 11 11 11 11 11 10 11 10 10 10 10 9 9 8 7 6 6 5 4 4 3 3 3 3 2 2 2 1 1 2 2 1 1 -1 -2 -1 -1
9 9 9 9 10 11 11 11 11 11 11 10 11 10 10 10 10 10 9 8 7 6 6 5 4 4 3 2 2 2 2 2 2 2 3 3 2 0 1 2 3 5 4
9 10 10 10 10 12 11 10 10 10 10 11 11 11 9 10 10 10 10 8 7 6 4 4 4 4 3 3 3 3 3 3 3 3 2 2 2 4 5 5 6 6 5
10 10 10 10 10 12 11 9 9 9 9 10 11 11 10 9 9 8 9 8 7 6 5 5 4 4 4 4 4 4 4 4 4 4 4 5 5 5 5 4 4 4 4
9 10 10 10 11 12 10 8 9 9 10 9 10 11 10 10 8 7 9 9 8 7 6 6 6 6 6 5 5 5 5 6 6 6 6 5 4 4 4 4 5 5 6
9 9 9 9 9 12 10 8 8 9 10 10 10 10 9 10 8 8 8 8 7 7 7 7 7 6 7 7 6 6 6 6 6 6 6 5 4 4 5 5 6 6 7
9 9 9 8 8 10 10 9 8 8 9 10 10 10 9 9 9 9 8 8 8 8 7 7 8 7 6 6 6 6 6 7 7 7 7 7 7 7 7 7 7 7 8
6 7 8 8 8 8 10 10 9 8 9 10 10 10 9 10 10 9 9 9 9 9 8 8 8 8 8 8 6 6 7 7 7 7 8 8 8 8 8 9 9 8 8
7 7 8 8 8 8 9 10 10 9 9 10 11 10 9 9 9 9 8 8 8 8 8 9 9 9 9 9 9 9 9 8 8 8 8 9 9 9 9 9 9 9 9
5 7 8 8 8 8 9 9 10 10 8 9 10 10 10 10 9 9 10 9 9 9 8 8 8 8 8 8 8 8 8 9 9 9 9 9 9 9 9 9 9 8 9
5 5 7 8 8 9 9 10 10 10 9 9 8 9 10 10 10 10 10 10 10 9 9 9 8 8 8 9 9 9 8 9 9 9 9 9 9 9 9 9 9 8 8
0 4 6 6 7 8 8 9 10 10 10 10 9 9 10 10 10 10 10 10 10 10 10 10 10 9 9 9 9 9 9 8 9 8 9 8 8 7 7 7 8 7 6
-5 -3 4 7 8 9 9 9 10 10 10 10 9 9 10 10 10 10 10 10 10 10 9 9 9 9 9 9 9 9 9 8 8 8 8 8 7 7 6 7 7 6 6
-4 -2 1 6 7 8 8 9 10 10 10 10 10 10 10 10 10 10 9 9 9 9 9 9 8 8 8 7 8 7 7 7 7 6 6 6 6 6 5 5 4 3 2
-6 -3 1 5 7 7 8 9 9 9 9 8 9 9 8 9 9 9 8 8 8 7 7 7 6 6 6 6 5 6 5 5 4 3 2 0 -2 -3 -4 -7 -9 -11 -14
-6 -3 1 5 6 7 8 8 8 8 7 7 7 7 7 7 6 6 6 6 6 5 5 5 5 4 4 3 3 3 1 -1 -3 -6 -8 -10 -12 -14 -18 -21 -22 -22 -22
-5 -4 1 4 5 6 6 6 6 6 6 5 5 5 5 5 5 4 4 4 3 3 2 1 0 -0 -1 -2 -2 -4 -6 -9 -12 -15 -17 -19 -21 -22 -23 -25 -26 -25 -27
-4 -3 -1 2 4 4 4 4 4 4 4 4 4 3 3 3 3 2 2 1 0 -1 -2 -3 -4 -4 -5 -7 -9 -13 -17 -20 -22 -21 -21 -21 -24 -26 -27 -26 -26 -26 -26
-5 -4 -3 -1 -1 -1 -1 -0 0 0 1 1 1 1 1 1 -0 -2 -2 -3 -4 -6 -8 -9 -10 -12 -13 -15 -17 -20 -21 -22 -23 -23 -25 -26 -26 -26 -25 -25 -26 -26 -25
-5 -5 -4 -4 -4 -4 -5 -5 -5 -4 -3 -3 -3 -4 -5 -6 -7 -9 -11 -13 -14 -14 -15 -16 -16 -17 -18 -18 -18 -19 -21 -22 -24 -24 -25 -25 -25 -25 -25 -25 -25 -25 -25
-7 -6 -6 -6 -7 -7 -7 -7 -7 -6 -6 -7 -9 -10 -11 -13 -14 -15 -16 -17 -17 -17 -18 -18 -18 -18 -19 -19 -21 -22 -24 -25 -25 -25 -24 -24 -24 -24 -24 -25 -25 -25 -25
-8 -8 -8 -8 -8 -8 -8 -9 -9 -10 -10 -11 -12 -14 -15 -16 -17 -17 -18 -18 -17 -17 -17 -17 -19 -20 -20 -21 -24 -26 -25 -24 -24 -23 -23 -23 -23 -23 -23 -23 -24 -24 -25

GFSMW_850_dewp_363.txt.gz
Dewpoint
11 12 12 13 13 12 11 10 11 11 12 12 11 10 8 8 7 7 6 5 4 5 5 6 5 5 4 3 2 1 3 2 2 2 2 1 -1 -3 -4 -4 -4 -5 -4
12 12 13 12 12 12 11 11 11 11 11 11 11 10 8 9 9 8 6 5 4 5 7 7 7 7 6 5 5 4 4 4 4 3 2 -0 -3 -4 -5 -5 -5 -5 -5
12 12 11 10 11 11 11 11 11 11 11 11 11 10 8 10 11 9 7 6 6 5 5 6 7 7 6 6 5 5 5 5 4 3 2 -1 -2 -3 -3 -4 -3 -2 -2
11 10 9 9 11 11 11 11 11 11 11 10 11 9 8 10 10 9 7 7 7 6 5 5 5 5 5 5 5 5 5 5 4 3 1 1 1 0 -1 -3 -4 -3 -2
12 12 10 9 10 11 11 11 11 10 10 10 10 9 9 9 10 10 8 7 7 7 6 5 5 4 4 4 5 5 5 4 3 2 2 2 2 2 2 -0 -1 -0 2
11 10 10 10 10 10 11 11 11 10 10 10 10 10 10 10 10 9 9 9 8 7 7 6 6 5 5 4 4 4 4 3 3 2 2 2 3 2 2 1 3 5 4
11 10 10 10 9 10 13 11 11 10 10 10 10 10 10 10 10 9 10 9 9 8 7 6 6 5 5 5 4 4 2 2 2 2 2 3 2 2 3 5 5 4 4
11 10 10 9 9 9 12 11 12 11 11 11 11 10 10 10 10 10 10 10 10 9 7 6 6 5 5 5 5 4 3 3 3 3 3 3 4 5 5 4 4 5 5
10 10 10 9 9 9 9 11 12 12 11 10 10 11 10 11 8 9 10 8 9 10 8 7 6 5 5 6 6 5 4 4 5 5 5 5 5 5 4 4 5 5 6
9 9 9 9 10 9 10 11 12 11 10 10 9 10 9 10 9 9 10 7 5 9 9 7 7 6 6 6 6 6 5 5 5 6 6 6 6 6 6 6 7 7 8
9 9 9 9 10 10 10 9 12 11 9 9 9 10 10 10 11 10 8 7 8 9 8 7 7 6 7 7 7 7 6 6 6 6 6 6 7 7 7 8 8 8 9
9 9 9 9 10 10 10 10 11 10 8 7 9 9 10 10 10 9 7 8 8 8 7 7 8 7 8 8 8 7 6 6 6 7 7 7 7 8 8 8 9 9 9
8 8 9 9 9 9 9 9 10 10 9 8 8 8 9 10 9 9 9 9 8 8 8 8 8 8 8 8 8 9 9 8 7 7 7 7 8 8 9 9 9 9 9
4 6 7 8 8 8 9 8 9 10 10 8 8 8 9 10 10 9 9 9 8 8 8 8 8 8 8 8 8 8 8 8 8 8 8 9 9 8 8 9 8 9 9
4 5 5 5 6 7 7 7 8 8 10 9 8 8 9 10 10 10 10 9 9 8 8 9 9 9 8 8 9 8 8 8 9 9 9 9 9 9 9 9 8 8 8
-3 -1 3 7 7 7 7 7 7 8 9 10 9 8 8 9 10 10 10 10 10 9 10 9 9 10 9 9 9 9 9 9 9 9 9 8 8 8 8 7 7 7 6
-5 -4 -3 1 6 8 8 7 8 9 10 11 10 10 9 8 9 10 10 10 10 10 10 10 10 10 9 9 9 9 9 8 8 8 8 7 7 7 7 6 6 6 5
-5 -5 -3 -2 0 5 7 8 8 9 10 10 10 10 10 9 9 9 9 10 10 10 10 9 9 9 8 8 8 8 8 7 6 7 6 6 6 6 6 5 4 2 -1
-6 -6 -5 -3 1 5 7 7 8 9 9 10 10 10 10 10 10 10 10 10 10 10 9 9 8 7 7 6 6 6 6 6 5 5 5 5 4 2 1 -3 -8 -12 -16
-5 -5 -4 -1 3 5 6 7 8 8 9 9 9 9 9 9 9 9 8 8 8 7 7 7 6 5 5 4 4 5 4 3 2 0 -2 -3 -6 -8 -12 -18 -21 -21 -21
-5 -5 -2 2 4 5 6 6 7 7 8 8 7 7 7 7 7 6 6 6 5 5 4 4 4 4 3 3 2 2 0 -4 -6 -8 -10 -13 -17 -21 -21 -23 -25 -26 -27
-5 -4 -1 2 3 4 5 5 5 5 5 5 5 5 5 5 5 4 4 4 3 3 3 2 1 -0 -1 -2 -2 -4 -9 -12 -15 -18 -19 -20 -21 -25 -26 -26 -26 -26 -26
-5 -4 -1 1 2 3 3 3 4 4 4 4 4 3 3 3 3 2 2 1 1 0 -1 -2 -3 -4 -5 -6 -8 -14 -19 -21 -21 -21 -22 -25 -25 -25 -25 -25 -25 -25 -24
-5 -4 -3 -2 -0 0 1 0 1 1 1 2 2 1 1 1 0 -0 -1 -2 -3 -4 -5 -6 -8 -9 -11 -14 -16 -18 -19 -22 -23 -23 -24 -25 -24 -24 -24 -24 -24 -24 -24
-7 -6 -5 -5 -4 -4 -4 -4 -4 -4 -3 -3 -2 -2 -2 -3 -3 -5 -8 -9 -11 -12 -13 -13 -14 -15 -17 -17 -17 -19 -21 -23 -24 -25 -24 -23 -23 -23 -23 -23 -23 -23 -23
-8 -7 -7 -7 -7 -7 -7 -7 -7 -6 -6 -6 -6 -7 -8 -10 -12 -13 -14 -15 -15 -16 -16 -16 -17 -17 -17 -18 -21 -23 -25 -25 -24 -23 -22 -22 -22 -22 -22 -22 -23 -23 -24

GFSMW_850_dewp_366.txt.gz
Dewpoint
12 12 12 11 12 13 13 12 11 12 12 12 12 11 11 9 9 8 7 7 7 5 3 1 1 4 6 6 6 4 3 2 2 3 3 1 -0 -1 -2 -3 -4 -4 -5
12 12 12 11 11 12 13 12 11 11 12 12 12 11 11 10 8 7 7 6 6 4 3 2 2 2 4 4 4 3 2 3 3 6 5 4 2 -4 -5 -4 -4 -4 -4
12 11 12 11 11 12 13 11 12 11 12 12 11 12 11 10 10 8 7 6 6 4 4 5 6 6 6 6 5 4 4 5 4 4 5 2 0 -1 -3 -4 -4 -3 -3
12 11 11 12 12 13 12 12 12 12 11 11 11 11 10 8 8 8 7 6 5 5 5 6 7 8 8 7 6 6 5 6 5 5 3 2 1 2 1 -0 -3 -3 -1
11 11 11 13 12 13 13 12 12 11 11 11 11 11 10 8 8 10 9 6 6 6 6 6 6 7 7 6 6 5 5 5 7 4 3 2 1 1 3 3 2 0 3
11 11 12 13 13 12 13 12 12 11 11 11 11 10 10 9 8 9 10 8 7 7 7 6 6 6 6 5 5 4 5 5 5 4 3 3 2 2 2 2 2 5 3
12 12 12 11 12 12 12 12 11 11 11 11 10 10 10 9 8 9 10 10 8 7 7 6 6 5 5 5 5 5 4 3 3 3 2 2 3 3 3 3 5 5 4
11 12 12 12 11 11 12 11 12 11 11 10 10 10 10 9 9 10 10 9 9 9 8 7 6 5 5 5 5 5 5 4 3 3 3 3 3 3 4 5 5 5 6
9 11 12 12 11 10 10 10 11 11 11 10 10 10 10 10 10 10 10 10 10 10 10 9 8 7 6 5 5 5 5 4 4 3 3 4 4 4 5 5 5 5 6
7 7 9 11 11 11 9 10 11 11 11 11 10 10 10 10 10 10 10 8 10 9 10 10 9 7 6 5 5 6 6 5 4 4 4 5 5 5 5 6 6 7 8
5 5 8 10 11 10 10 9 10 11 11 11 12 11 10 10 10 10 9 7 9 9 6 6 9 8 7 6 6 6 6 7 6 5 5 5 6 6 7 7 7 8 8
7 5 8 10 10 10 10 9 9 10 10 11 12 12 10 10 10 10 10 8 10 7 5 5 7 8 7 7 6 7 7 7 7 6 6 6 6 6 7 7 8 8 8
8 9 10 8 7 9 10 10 10 10 10 11 12 11 10 9 9 10 10 10 10 7 6 6 6 8 8 7 6 7 8 7 7 6 7 6 7 7 7 7 8 8 9
8 9 9 8 8 9 10 10 10 10 10 10 11 10 8 8 9 9 9 10 9 8 8 8 8 8 8 8 8 8 8 9 9 8 8 8 8 8 8 9 9 8 8
7 8 7 8 9 9 8 8 9 9 9 10 11 9 8 8 8 9 9 8 8 8 9 9 9 9 9 9 9 9 9 9 9 9 9 9 9 9 9 9 9 8 8
5 6 7 8 8 7 8 8 8 9 9 11 11 10 9 8 9 9 10 9 9 8 9 9 9 8 8 8 9 9 9 9 9 9 9 9 7 8 9 8 7 7 8
-3 -3 0 4 6 7 7 8 7 8 9 10 10 10 10 8 9 10 10 10 10 10 10 9 8 8 9 9 9 9 9 9 9 8 7 8 8 8 8 8 7 7 6
-5 -5 -4 -3 -0 3 6 8 9 9 10 10 10 10 11 10 9 9 9 10 10 10 10 10 10 10 10 9 9 9 9 8 7 8 7 7 7 6 5 6 5 5 4
-5 -5 -6 -5 -4 -2 1 7 7 8 8 8 9 10 10 11 10 9 9 10 10 10 10 10 10 9 9 9 9 8 7 7 6 6 5 5 4 5 4 3 0 -5 -9
-5 -5 -5 -5 -3 -0 3 5 6 7 7 8 8 9 10 10 10 10 10 10 10 9 9 9 8 7 6 6 6 7 6 5 4 4 3 3 3 -0 -4 -6 -13 -18 -20
-5 -5 -5 -4 -1 3 4 5 6 7 7 8 8 8 9 9 9 9 9 9 8 8 6 5 5 4 3 4 4 4 4 4 2 1 -1 -3 -3 -10 -18 -21 -22 -23 -25
-5 -4 -3 -1 2 3 4 5 5 6 6 6 7 6 7 7 6 6 5 5 5 5 4 3 2 2 1 1 1 1 1 0 -0 -2 -5 -13 -18 -21 -25 -26 -26 -26 -25
-5 -4 -2 1 2 3 3 3 4 4 4 4 5 5 5 5 5 4 4 4 4 3 3 2 1 1 -0 -2 -1 -4 -10 -15 -17 -17 -18 -19 -23 -25 -25 -25 -24 -24 -23
-6 -4 -3 -0 1 2 2 2 2 3 3 3 3 3 3 3 3 3 2 2 2 2 0 -0 -1 -2 -3 -5 -8 -12 -18 -20 -21 -21 -22 -23 -24 -24 -24 -23 -23 -22 -22
-8 -6 -5 -4 -3 -1 -0 0 0 1 1 1 1 1 1 1 0 -0 -1 -2 -3 -3 -3 -4 -5 -5 -7 -10 -14 -17 -18 -19 -21 -22 -23 -23 -23 -22 -22 -22 -22 -22 -22
-8 -8 -7 -6 -6 -6 -5 -5 -4 -4 -3 -2 -2 -2 -1 -2 -3 -4 -4 -8 -9 -8 -10 -11 -11 -13 -14 -16 -17 -18 -21 -23 -24 -23 -22 -20 -20 -22 -22 -22 -22 -22 -22